TimeEST,TemperatureF,Dew PointF,Humidity,Sea Level PressureIn,VisibilityMPH,Wind Direction,Wind SpeedMPH,Gust SpeedMPH,PrecipitationIn,Events,Conditions,WindDirDegrees,DateUTC
12:09 AM,35.6,26.6,70,30.03,10.0,WNW,8.1,-,N/A,,Overcast,290,2012-12-28 05:09:00
1:36 AM,35.6,26.6,70,30.04,10.0,WNW,5.8,-,N/A,,Overcast,300,2012-12-28 06:36:00
1:57 AM,35.6,26.6,70,30.05,10.0,NW,8.1,-,N/A,,Overcast,310,2012-12-28 06:57:00
2:18 AM,35.6,26.6,70,30.05,10.0,WNW,9.2,-,N/A,,Overcast,300,2012-12-28 07:18:00
2:39 AM,33.8,26.6,75,30.05,10.0,NW,4.6,-,N/A,,Mostly Cloudy,310,2012-12-28 07:39:00
3:00 AM,33.8,26.6,75,30.05,10.0,WNW,5.8,-,N/A,,Mostly Cloudy,300,2012-12-28 08:00:00
3:21 AM,33.8,26.6,75,30.06,10.0,WNW,4.6,-,N/A,,Scattered Clouds,290,2012-12-28 08:21:00
3:42 AM,33.8,26.6,75,30.06,10.0,WNW,3.5,-,N/A,,Scattered Clouds,290,2012-12-28 08:42:00
4:03 AM,33.8,26.6,75,30.07,10.0,West,5.8,-,N/A,,Mostly Cloudy,270,2012-12-28 09:03:00
4:24 AM,32.0,28.4,87,30.08,10.0,West,5.8,-,N/A,,Scattered Clouds,260,2012-12-28 09:24:00
5:30 AM,32.0,26.6,80,30.08,10.0,WSW,4.6,-,N/A,,Clear,250,2012-12-28 10:30:00
5:51 AM,30.2,26.6,86,30.09,10.0,SSW,3.5,-,N/A,,Clear,200,2012-12-28 10:51:00
6:33 AM,30.2,26.6,86,30.10,10.0,West,3.5,-,N/A,,Clear,260,2012-12-28 11:33:00
6:54 AM,30.2,26.6,86,30.09,10.0,WNW,3.5,-,N/A,,Clear,290,2012-12-28 11:54:00
7:36 AM,28.4,26.6,93,30.12,10.0,Calm,Calm,-,N/A,,Clear,0,2012-12-28 12:36:00
7:57 AM,30.2,26.6,86,30.13,10.0,Calm,Calm,-,N/A,,Clear,0,2012-12-28 12:57:00
8:18 AM,28.4,26.6,93,30.13,10.0,Calm,Calm,-,N/A,,Clear,0,2012-12-28 13:18:00
8:39 AM,30.2,28.4,93,30.14,10.0,Calm,Calm,-,N/A,,Clear,0,2012-12-28 13:39:00
9:03 AM,32.0,30.2,93,30.15,10.0,Calm,Calm,-,N/A,,Clear,0,2012-12-28 14:03:00
9:24 AM,33.8,28.4,81,30.15,10.0,NW,3.5,-,N/A,,Clear,310,2012-12-28 14:24:00
9:45 AM,35.6,28.4,75,30.15,10.0,NNW,5.8,-,N/A,,Clear,330,2012-12-28 14:45:00
10:06 AM,37.4,28.4,70,30.16,10.0,WNW,5.8,-,N/A,,Clear,290,2012-12-28 15:06:00
10:27 AM,37.4,26.6,65,30.17,10.0,WNW,5.8,-,N/A,,Clear,300,2012-12-28 15:27:00
10:48 AM,39.2,26.6,61,30.16,10.0,North,5.8,-,N/A,,Clear,350,2012-12-28 15:48:00
11:09 AM,39.2,28.4,65,30.15,10.0,North,4.6,-,N/A,,Clear,360,2012-12-28 16:09:00
11:30 AM,39.2,26.6,61,30.14,10.0,North,5.8,-,N/A,,Clear,10,2012-12-28 16:30:00
11:51 AM,39.2,26.6,61,30.13,10.0,NW,4.6,-,N/A,,Clear,320,2012-12-28 16:51:00
12:12 PM,41.0,26.6,57,30.13,10.0,Calm,Calm,-,N/A,,Clear,0,2012-12-28 17:12:00
12:33 PM,41.0,26.6,57,30.12,10.0,WSW,4.6,-,N/A,,Clear,250,2012-12-28 17:33:00
12:57 PM,39.2,26.6,61,30.11,10.0,NW,3.5,-,N/A,,Clear,310,2012-12-28 17:57:00
1:18 PM,41.0,26.6,57,30.10,10.0,WNW,3.5,-,N/A,,Clear,290,2012-12-28 18:18:00
1:39 PM,41.0,26.6,57,30.09,10.0,Calm,Calm,-,N/A,,Clear,0,2012-12-28 18:39:00
2:00 PM,41.0,26.6,57,30.11,10.0,WNW,5.8,-,N/A,,Clear,290,2012-12-28 19:00:00
2:21 PM,41.0,26.6,57,30.11,10.0,NW,5.8,-,N/A,,Clear,310,2012-12-28 19:21:00
2:42 PM,41.0,26.6,57,30.11,10.0,WNW,6.9,-,N/A,,Clear,290,2012-12-28 19:42:00
3:03 PM,41.0,26.6,57,30.10,10.0,WNW,3.5,-,N/A,,Clear,290,2012-12-28 20:03:00
3:24 PM,41.0,26.6,57,30.11,10.0,West,4.6,-,N/A,,Clear,270,2012-12-28 20:24:00
4:06 PM,39.2,26.6,61,30.11,10.0,NW,3.5,-,N/A,,Clear,320,2012-12-28 21:06:00
4:27 PM,37.4,26.6,65,30.11,10.0,Calm,Calm,-,N/A,,Clear,0,2012-12-28 21:27:00
4:51 PM,35.6,26.6,70,30.10,10.0,NNW,3.5,-,N/A,,Clear,340,2012-12-28 21:51:00
5:33 PM,32.0,26.6,80,30.11,10.0,Calm,Calm,-,N/A,,Clear,0,2012-12-28 22:33:00
5:54 PM,32.0,26.6,80,30.10,10.0,Calm,Calm,-,N/A,,Clear,0,2012-12-28 22:54:00
6:15 PM,32.0,26.6,80,30.09,10.0,Calm,Calm,-,N/A,,Clear,0,2012-12-28 23:15:00
6:36 PM,30.2,26.6,86,30.11,10.0,Calm,Calm,-,N/A,,Clear,0,2012-12-28 23:36:00
6:57 PM,30.2,26.6,86,30.10,10.0,Calm,Calm,-,N/A,,Clear,0,2012-12-28 23:57:00
7:18 PM,30.2,26.6,86,30.11,10.0,Calm,Calm,-,N/A,,Clear,0,2012-12-29 00:18:00
7:39 PM,30.2,26.6,86,30.10,10.0,Calm,Calm,-,N/A,,Clear,0,2012-12-29 00:39:00
8:00 PM,30.2,26.6,86,30.10,10.0,Calm,Calm,-,N/A,,Clear,0,2012-12-29 01:00:00
8:21 PM,30.2,28.4,93,30.10,10.0,Calm,Calm,-,N/A,,Clear,0,2012-12-29 01:21:00
8:45 PM,30.2,26.6,86,30.12,10.0,Calm,Calm,-,N/A,,Clear,0,2012-12-29 01:45:00
9:06 PM,30.2,26.6,86,30.11,10.0,Calm,Calm,-,N/A,,Clear,0,2012-12-29 02:06:00
10:09 PM,32.0,28.4,87,30.10,10.0,Calm,Calm,-,N/A,,Clear,0,2012-12-29 03:09:00
10:30 PM,32.0,28.4,87,30.08,10.0,Calm,Calm,-,N/A,,Clear,0,2012-12-29 03:30:00
10:51 PM,32.0,28.4,87,30.08,10.0,Calm,Calm,-,N/A,,Clear,0,2012-12-29 03:51:00
11:12 PM,32.0,28.4,87,30.06,10.0,Calm,Calm,-,N/A,,Clear,0,2012-12-29 04:12:00
11:33 PM,32.0,28.4,87,30.08,10.0,Calm,Calm,-,N/A,,Clear,0,2012-12-29 04:33:00
11:54 PM,32.0,28.4,87,30.08,10.0,Calm,Calm,-,N/A,,Clear,0,2012-12-29 04:54:00